Home   Weather   23°32'S, 46°37'W   Past weeks
Flag for Brazil

Past Weather in 23°32'S, 46°37'W, Brazil — Yesterday and Last 2 Weeks

Now
73 °F

Clear.


Feels Like: 77 °F
Forecast: 80 / 62 °F
Wind: 7 mph from Northwest

Location: Sao Paulo Airport

Current Time: Jun 25, 2019 at 9:03:01 pm

Latest Report: Jun 25, 2019 at 8:00 pm


Visibility: 10 mi

Pressure: 30.07 "Hg

Humidity: 47%

Dew Point: 52 °F

Location of 23°32'S, 46°37'WLocation

Past Weather in 23°32'S, 46°37'W — Graph

°F

23°32'S, 46°37'W Temperature Yesterday

Maximum temperature yesterday: 77 °F (at 3:00 pm)
Minimum temperature yesterday: 59 °F (at 5:00 am)
Average temperature yesterday: 68 °F

High & Low Weather Summary for the Past Weeks

 TemperatureHumidityPressure
High81 °F (Jun 14, 2:00 pm)94% (Jun 10, 11:08 pm)30.42 "Hg (Jun 10, 11:08 pm)
Low55 °F (Jun 11, 5:00 am)34% (Jun 14, 2:00 pm)30.01 "Hg (Jun 25, 4:00 am)
Average67 °F68%30.25 "Hg
* Reported Jun 10 8:00 pm — Jun 25 8:00 pm, 23°32'S, 46°37'W. Weather by CustomWeather, © 2019

Note: Actual official high and low records may vary slightly from our data, if they occured in-between our weather recording intervals... More about our weather records

Advertising

23°32'S, 46°37'W Weather History for the Previous 24 Hours

Scroll right to see more
 ConditionsComfort  
Time TempWeatherWind HumidityBarometerVisibility
8:00 pm
Tue, Jun 25
73 °FClear.7 mph47%30.07 "Hg10 mi
7:00 pm73 °FClear.5 mph47%30.04 "Hg10 mi
6:00 pm75 °FClear.8 mph44%30.04 "Hg10 mi
5:00 pm77 °FSunny.8 mph42%30.01 "Hg10 mi
4:00 pm79 °FSunny.15 mph39%30.01 "Hg10 mi
3:00 pm79 °FSunny.20 mph37%30.01 "Hg10 mi
2:00 pm79 °FSunny.18 mph37%30.01 "Hg10 mi
1:00 pm79 °FSunny.20 mph37%30.01 "Hg10 mi
12:00 pm77 °FPassing clouds.22 mph42%30.04 "HgN/A
11:00 am75 °FPassing clouds.17 mph44%30.07 "HgN/A
10:00 am72 °FSunny.14 mph53%30.07 "Hg10 mi
9:00 am70 °FSunny.13 mph57%30.07 "Hg10 mi
8:00 am66 °FSunny.6 mph64%30.04 "Hg10 mi
7:00 am64 °FSunny.7 mph64%30.04 "Hg10 mi
6:00 am63 °FClear.3 mph68%30.01 "Hg10 mi
5:00 am63 °FClear.3 mph68%30.01 "Hg10 mi
4:00 am64 °FClear.7 mph60%30.01 "Hg10 mi
3:00 am64 °FClear.7 mph60%30.04 "Hg10 mi
2:00 am64 °FClear.8 mph64%30.04 "Hg10 mi
1:00 am66 °FClear.7 mph60%30.07 "Hg10 mi
12:00 am66 °FClear.9 mph56%30.07 "Hg10 mi
11:01 pm
Mon, Jun 24
68 °FClear.8 mph53%30.07 "Hg10 mi
10:00 pm66 °FClear.14 mph60%30.09 "Hg10 mi
9:00 pm68 °FClear.8 mph56%30.09 "Hg10 mi
Weather by CustomWeather, © 2019

See weather overview